QPF
0.08 0.09 0.10 0.08 0.07 0.08 0.10 0.11 0.12 0.09 0.04 0.04 0.04 0.05 0.05 0.05 0.08 0.08 0.06 0.06 0.07 0.08 0.08 0.07 0.06 0.05 0.05 0.04 0.04 0.03 0.03 0.03 0.02 0.03 0.05 0.07 0.08 0.07
0.06 0.07 0.06 0.06 0.07 0.10 0.14 0.13 0.13 0.13 0.07 0.04 0.04 0.04 0.05 0.05 0.09 0.12 0.09 0.08 0.07 0.08 0.09 0.08 0.07 0.07 0.06 0.05 0.04 0.04 0.04 0.04 0.03 0.02 0.03 0.04 0.04 0.03
0.05 0.06 0.05 0.06 0.06 0.07 0.10 0.15 0.15 0.14 0.12 0.06 0.05 0.06 0.04 0.03 0.06 0.06 0.08 0.11 0.12 0.10 0.07 0.06 0.06 0.07 0.06 0.04 0.03 0.03 0.04 0.04 0.04 0.04 0.03 0.03 0.03 0.03
0.06 0.06 0.05 0.06 0.07 0.08 0.09 0.11 0.12 0.12 0.12 0.08 0.07 0.08 0.08 0.07 0.08 0.06 0.06 0.06 0.07 0.07 0.06 0.06 0.06 0.05 0.05 0.04 0.03 0.03 0.03 0.04 0.05 0.04 0.04 0.04 0.04 0.04
0.05 0.05 0.05 0.07 0.06 0.06 0.07 0.07 0.09 0.10 0.09 0.07 0.05 0.05 0.05 0.04 0.06 0.05 0.05 0.05 0.05 0.05 0.05 0.04 0.04 0.04 0.04 0.04 0.04 0.04 0.04 0.04 0.04 0.04 0.04 0.04 0.04 0.04
0.04 0.04 0.06 0.06 0.05 0.05 0.05 0.06 0.07 0.07 0.07 0.06 0.04 0.04 0.04 0.04 0.05 0.04 0.03 0.03 0.03 0.05 0.05 0.03 0.03 0.03 0.04 0.04 0.04 0.04 0.04 0.04 0.04 0.04 0.04 0.04 0.05 0.05
0.05 0.05 0.05 0.05 0.04 0.04 0.05 0.06 0.09 0.09 0.07 0.06 0.05 0.04 0.03 0.03 0.03 0.03 0.02 0.03 0.02 0.02 0.03 0.03 0.03 0.02 0.02 0.03 0.03 0.03 0.04 0.04 0.04 0.03 0.03 0.04 0.04 0.05
0.05 0.06 0.07 0.06 0.05 0.05 0.05 0.07 0.07 0.08 0.08 0.08 0.07 0.06 0.04 0.04 0.03 0.03 0.03 0.03 0.02 0.02 0.03 0.03 0.03 0.03 0.03 0.03 0.02 0.02 0.02 0.02 0.02 0.02 0.02 0.03 0.03 0.03
0.05 0.06 0.05 0.04 0.05 0.04 0.04 0.05 0.04 0.06 0.09 0.09 0.09 0.07 0.06 0.04 0.05 0.05 0.03 0.03 0.02 0.02 0.04 0.03 0.03 0.03 0.03 0.03 0.03 0.03 0.02 0.02 0.01 0.01 0.01 0.02 0.03 0.04
0.06 0.04 0.03 0.04 0.05 0.04 0.05 0.05 0.04 0.06 0.07 0.08 0.09 0.08 0.07 0.05 0.06 0.05 0.05 0.05 0.04 0.04 0.04 0.03 0.02 0.03 0.03 0.04 0.04 0.04 0.03 0.02 0.02 0.02 0.02 0.02 0.02 0.03
0.04 0.04 0.03 0.03 0.03 0.03 0.04 0.04 0.05 0.05 0.07 0.08 0.09 0.07 0.06 0.05 0.05 0.05 0.05 0.05 0.04 0.03 0.04 0.04 0.03 0.03 0.04 0.05 0.06 0.06 0.06 0.05 0.04 0.03 0.03 0.03 0.02 0.02
0.04 0.04 0.03 0.02 0.02 0.02 0.03 0.03 0.04 0.04 0.04 0.05 0.05 0.06 0.06 0.05 0.04 0.03 0.03 0.05 0.04 0.03 0.03 0.04 0.04 0.04 0.05 0.04 0.05 0.06 0.07 0.08 0.09 0.07 0.04 0.03 0.02 0.02
0.03 0.03 0.02 0.03 0.03 0.03 0.03 0.03 0.04 0.04 0.04 0.04 0.04 0.04 0.04 0.03 0.02 0.02 0.03 0.04 0.04 0.04 0.03 0.04 0.04 0.05 0.06 0.04 0.04 0.06 0.07 0.08 0.09 0.09 0.07 0.04 0.02 0.01
0.03 0.03 0.03 0.03 0.03 0.04 0.03 0.03 0.05 0.05 0.03 0.03 0.03 0.03 0.03 0.02 0.02 0.02 0.03 0.04 0.05 0.05 0.05 0.05 0.05 0.05 0.05 0.05 0.04 0.04 0.06 0.08 0.08 0.09 0.09 0.08 0.06 0.04
0.03 0.04 0.04 0.04 0.03 0.03 0.03 0.05 0.05 0.04 0.03 0.03 0.03 0.03 0.03 0.04 0.04 0.04 0.03 0.03 0.04 0.05 0.06 0.06 0.06 0.06 0.06 0.06 0.05 0.05 0.05 0.06 0.07 0.07 0.08 0.08 0.08 0.08
0.04 0.04 0.04 0.05 0.05 0.05 0.05 0.05 0.05 0.05 0.05 0.05 0.05 0.05 0.05 0.05 0.05 0.05 0.04 0.03 0.04 0.04 0.04 0.06 0.07 0.07 0.06 0.06 0.06 0.06 0.06 0.06 0.07 0.07 0.07 0.08 0.08 0.08
0.03 0.04 0.04 0.04 0.05 0.05 0.06 0.06 0.06 0.06 0.07 0.08 0.09 0.09 0.10 0.09 0.09 0.09 0.07 0.05 0.05 0.04 0.04 0.03 0.04 0.06 0.08 0.08 0.08 0.06 0.06 0.06 0.06 0.06 0.06 0.06 0.07 0.08
0.03 0.02 0.02 0.02 0.03 0.04 0.05 0.07 0.09 0.12 0.12 0.12 0.12 0.11 0.08 0.06 0.06 0.08 0.09 0.09 0.08 0.05 0.04 0.03 0.03 0.04 0.05 0.07 0.08 0.07 0.05 0.04 0.03 0.04 0.06 0.07 0.06 0.05
0.02 0.01 0.01 0.02 0.03 0.05 0.06 0.07 0.06 0.07 0.09 0.09 0.08 0.08 0.07 0.07 0.08 0.07 0.06 0.06 0.07 0.07 0.06 0.05 0.04 0.04 0.04 0.04 0.05 0.06 0.05 0.03 0.03 0.03 0.03 0.03 0.03 0.04
0.02 0.02 0.03 0.03 0.03 0.04 0.06 0.07 0.08 0.08 0.09 0.10 0.09 0.08 0.07 0.07 0.07 0.06 0.05 0.04 0.04 0.04 0.04 0.04 0.04 0.04 0.04 0.05 0.07 0.07 0.04 0.03 0.03 0.03 0.03 0.03 0.03 0.03
0.01 0.02 0.02 0.02 0.03 0.03 0.05 0.08 0.09 0.08 0.09 0.09 0.08 0.08 0.07 0.06 0.05 0.05 0.04 0.04 0.03 0.03 0.02 0.02 0.03 0.04 0.05 0.06 0.08 0.07 0.04 0.04 0.04 0.04 0.04 0.04 0.04 0.03
0.01 0.01 0.01 0.02 0.02 0.03 0.04 0.05 0.04 0.04 0.04 0.04 0.05 0.06 0.06 0.05 0.05 0.04 0.03 0.03 0.03 0.03 0.02 0.02 0.02 0.03 0.04 0.06 0.08 0.08 0.07 0.05 0.06 0.06 0.06 0.05 0.04 0.03
0.02 0.02 0.02 0.02 0.02 0.02 0.03 0.03 0.03 0.03 0.03 0.03 0.03 0.02 0.03 0.03 0.04 0.05 0.04 0.04 0.04 0.04 0.04 0.04 0.04 0.03 0.04 0.06 0.08 0.09 0.09 0.08 0.06 0.05 0.04 0.04 0.03 0.03
MSLP
1014.63 1014.86 1015.12 1015.38 1015.60 1015.77 1015.87 1015.89 1015.85 1015.75 1015.60 1015.42 1015.21 1014.97 1014.70 1014.40 1014.08 1013.76 1013.44 1013.16 1012.93 1012.77 1012.69 1012.68 1012.73 1012.81 1012.90 1012.97 1013.01 1013.00 1012.96 1012.88 1012.76 1012.62 1012.46 1012.28 1012.07 1011.83
1014.45 1014.64 1014.86 1015.08 1015.29 1015.47 1015.60 1015.69 1015.72 1015.71 1015.65 1015.56 1015.42 1015.23 1015.00 1014.72 1014.41 1014.07 1013.74 1013.43 1013.18 1012.99 1012.87 1012.82 1012.83 1012.87 1012.92 1012.95 1012.96 1012.94 1012.88 1012.80 1012.69 1012.56 1012.42 1012.26 1012.07 1011.85
1014.37 1014.51 1014.68 1014.87 1015.05 1015.22 1015.37 1015.49 1015.59 1015.65 1015.68 1015.67 1015.60 1015.48 1015.29 1015.05 1014.75 1014.42 1014.09 1013.76 1013.48 1013.25 1013.09 1012.98 1012.93 1012.91 1012.90 1012.88 1012.85 1012.78 1012.70 1012.60 1012.48 1012.36 1012.24 1012.10 1011.93 1011.73
1014.34 1014.45 1014.58 1014.72 1014.88 1015.03 1015.19 1015.35 1015.49 1015.61 1015.71 1015.77 1015.78 1015.72 1015.59 1015.39 1015.12 1014.81 1014.47 1014.14 1013.83 1013.56 1013.34 1013.18 1013.06 1012.96 1012.88 1012.79 1012.69 1012.57 1012.45 1012.31 1012.18 1012.05 1011.93 1011.80 1011.65 1011.47
1014.32 1014.41 1014.52 1014.63 1014.77 1014.91 1015.08 1015.25 1015.42 1015.59 1015.74 1015.86 1015.93 1015.93 1015.86 1015.70 1015.48 1015.19 1014.87 1014.54 1014.21 1013.91 1013.64 1013.42 1013.22 1013.04 1012.87 1012.71 1012.53 1012.35 1012.17 1011.99 1011.82 1011.67 1011.53 1011.40 1011.26 1011.09
1014.27 1014.36 1014.45 1014.56 1014.68 1014.83 1014.99 1015.17 1015.37 1015.57 1015.76 1015.92 1016.03 1016.08 1016.06 1015.96 1015.78 1015.53 1015.24 1014.92 1014.59 1014.27 1013.96 1013.67 1013.41 1013.15 1012.90 1012.65 1012.40 1012.15 1011.90 1011.67 1011.46 1011.28 1011.11 1010.96 1010.80 1010.63
1014.15 1014.24 1014.34 1014.45 1014.58 1014.72 1014.89 1015.08 1015.29 1015.50 1015.71 1015.89 1016.04 1016.12 1016.14 1016.09 1015.96 1015.77 1015.51 1015.22 1014.90 1014.57 1014.24 1013.91 1013.59 1013.27 1012.95 1012.63 1012.30 1011.98 1011.68 1011.39 1011.14 1010.91 1010.70 1010.51 1010.33 1010.12
1013.95 1014.05 1014.16 1014.29 1014.42 1014.58 1014.75 1014.94 1015.14 1015.35 1015.56 1015.75 1015.91 1016.02 1016.07 1016.06 1015.98 1015.84 1015.63 1015.38 1015.09 1014.77 1014.43 1014.08 1013.72 1013.35 1012.98 1012.60 1012.23 1011.85 1011.50 1011.17 1010.86 1010.58 1010.33 1010.09 1009.86 1009.62
1013.66 1013.78 1013.91 1014.05 1014.20 1014.36 1014.54 1014.72 1014.91 1015.11 1015.30 1015.48 1015.63 1015.75 1015.83 1015.85 1015.82 1015.72 1015.56 1015.35 1015.10 1014.80 1014.48 1014.12 1013.75 1013.37 1012.96 1012.55 1012.14 1011.74 1011.34 1010.97 1010.62 1010.30 1010.00 1009.71 1009.43 1009.13
1013.30 1013.44 1013.59 1013.75 1013.92 1014.09 1014.26 1014.44 1014.61 1014.77 1014.94 1015.09 1015.23 1015.34 1015.43 1015.47 1015.46 1015.41 1015.30 1015.13 1014.92 1014.65 1014.35 1014.02 1013.66 1013.27 1012.86 1012.45 1012.02 1011.60 1011.19 1010.79 1010.41 1010.05 1009.70 1009.36 1009.03 1008.68
1012.89 1013.04 1013.22 1013.40 1013.59 1013.78 1013.95 1014.10 1014.25 1014.38 1014.51 1014.63 1014.74 1014.84 1014.91 1014.96 1014.98 1014.95 1014.87 1014.74 1014.56 1014.34 1014.07 1013.76 1013.43 1013.06 1012.67 1012.26 1011.85 1011.43 1011.01 1010.59 1010.19 1009.80 1009.41 1009.03 1008.64 1008.25
1012.43 1012.62 1012.82 1013.04 1013.25 1013.44 1013.61 1013.75 1013.87 1013.98 1014.07 1014.15 1014.22 1014.29 1014.35 1014.40 1014.41 1014.40 1014.34 1014.24 1014.09 1013.90 1013.67 1013.39 1013.08 1012.75 1012.39 1012.01 1011.61 1011.20 1010.78 1010.36 1009.94 1009.52 1009.10 1008.68 1008.25 1007.82
1011.93 1012.16 1012.41 1012.66 1012.89 1013.10 1013.27 1013.40 1013.50 1013.58 1013.64 1013.68 1013.73 1013.77 1013.81 1013.84 1013.85 1013.83 1013.78 1013.69 1013.56 1013.39 1013.18 1012.94 1012.67 1012.37 1012.04 1011.69 1011.32 1010.92 1010.51 1010.08 1009.64 1009.20 1008.75 1008.30 1007.84 1007.38
1011.40 1011.68 1011.97 1012.25 1012.51 1012.74 1012.91 1013.05 1013.14 1013.19 1013.23 1013.26 1013.28 1013.30 1013.32 1013.33 1013.33 1013.30 1013.24 1013.15 1013.03 1012.87 1012.68 1012.46 1012.21 1011.95 1011.65 1011.33 1010.98 1010.60 1010.19 1009.76 1009.30 1008.83 1008.35 1007.87 1007.39 1006.92
1010.81 1011.14 1011.47 1011.79 1012.08 1012.32 1012.51 1012.65 1012.74 1012.80 1012.84 1012.86 1012.88 1012.89 1012.89 1012.89 1012.87 1012.82 1012.75 1012.65 1012.51 1012.35 1012.17 1011.97 1011.75 1011.51 1011.24 1010.95 1010.62 1010.25 1009.84 1009.40 1008.92 1008.42 1007.91 1007.40 1006.90 1006.41
1010.15 1010.52 1010.89 1011.24 1011.55 1011.81 1012.01 1012.17 1012.28 1012.35 1012.41 1012.45 1012.48 1012.50 1012.50 1012.49 1012.46 1012.40 1012.30 1012.18 1012.04 1011.87 1011.69 1011.49 1011.29 1011.07 1010.83 1010.55 1010.24 1009.88 1009.47 1009.01 1008.51 1007.98 1007.44 1006.90 1006.36 1005.85
1009.41 1009.80 1010.18 1010.55 1010.87 1011.14 1011.36 1011.54 1011.69 1011.80 1011.89 1011.97 1012.04 1012.08 1012.11 1012.11 1012.07 1012.00 1011.89 1011.75 1011.58 1011.40 1011.22 1011.03 1010.83 1010.63 1010.40 1010.15 1009.85 1009.49 1009.08 1008.60 1008.08 1007.52 1006.95 1006.37 1005.80 1005.25
1008.56 1008.95 1009.33 1009.68 1010.01 1010.29 1010.54 1010.75 1010.93 1011.10 1011.25 1011.39 1011.51 1011.61 1011.67 1011.69 1011.67 1011.59 1011.47 1011.32 1011.14 1010.95 1010.76 1010.57 1010.38 1010.19 1009.98 1009.74 1009.45 1009.10 1008.68 1008.20 1007.66 1007.07 1006.46 1005.84 1005.23 1004.64
1007.60 1007.96 1008.32 1008.66 1008.97 1009.26 1009.53 1009.78 1010.02 1010.25 1010.48 1010.69 1010.89 1011.05 1011.16 1011.22 1011.22 1011.16 1011.04 1010.88 1010.69 1010.49 1010.30 1010.11 1009.93 1009.75 1009.56 1009.34 1009.06 1008.72 1008.31 1007.81 1007.26 1006.64 1006.00 1005.34 1004.69 1004.05
1006.56 1006.88 1007.19 1007.50 1007.80 1008.10 1008.39 1008.68 1008.98 1009.29 1009.60 1009.90 1010.18 1010.41 1010.59 1010.70 1010.73 1010.69 1010.58 1010.42 1010.24 1010.04 1009.85 1009.66 1009.50 1009.33 1009.16 1008.95 1008.70 1008.37 1007.96 1007.46 1006.90 1006.27 1005.59 1004.90 1004.20 1003.51
1005.48 1005.74 1006.02 1006.30 1006.58 1006.88 1007.20 1007.54 1007.90 1008.28 1008.67 1009.06 1009.42 1009.73 1009.97 1010.13 1010.20 1010.19 1010.11 1009.97 1009.79 1009.60 1009.42 1009.25 1009.10 1008.95 1008.79 1008.61 1008.37 1008.05 1007.66 1007.17 1006.60 1005.96 1005.27 1004.54 1003.80 1003.06
1004.43 1004.65 1004.88 1005.14 1005.42 1005.73 1006.07 1006.46 1006.88 1007.33 1007.79 1008.25 1008.68 1009.06 1009.36 1009.57 1009.69 1009.71 1009.65 1009.53 1009.37 1009.20 1009.04 1008.88 1008.75 1008.62 1008.48 1008.32 1008.09 1007.80 1007.42 1006.94 1006.37 1005.73 1005.03 1004.28 1003.51 1002.73
1003.51 1003.70 1003.92 1004.17 1004.45 1004.77 1005.14 1005.56 1006.02 1006.52 1007.04 1007.56 1008.04 1008.46 1008.81 1009.06 1009.21 1009.26 1009.23 1009.14 1009.01 1008.86 1008.72 1008.58 1008.47 1008.36 1008.24 1008.09 1007.88 1007.61 1007.24 1006.77 1006.22 1005.58 1004.87 1004.12 1003.33 1002.52
Thickness
5751 5749 5747 5747 5747 5746 5743 5740 5733 5729 5731 5738 5740 5745 5745 5744 5744 5743 5742 5741 5740 5738 5737 5735 5734 5732 5731 5729 5728 5726 5724 5723 5721 5721 5720 5718 5717 5716
5748 5746 5745 5744 5743 5742 5741 5739 5736 5731 5729 5735 5736 5739 5739 5740 5739 5738 5737 5737 5736 5735 5733 5732 5731 5729 5727 5725 5724 5722 5721 5719 5718 5717 5716 5715 5713 5712
5744 5742 5741 5741 5739 5738 5737 5735 5733 5730 5727 5731 5733 5734 5733 5733 5733 5732 5731 5731 5731 5730 5729 5728 5727 5725 5723 5721 5719 5718 5717 5715 5714 5713 5712 5711 5709 5708
5739 5738 5736 5736 5733 5733 5732 5730 5729 5728 5724 5723 5725 5725 5725 5726 5726 5725 5726 5726 5725 5725 5725 5724 5722 5720 5718 5716 5715 5713 5712 5710 5709 5708 5707 5706 5705 5704
5735 5733 5732 5730 5728 5727 5726 5725 5724 5724 5721 5719 5719 5719 5719 5720 5718 5718 5719 5719 5720 5720 5719 5718 5716 5714 5713 5711 5709 5708 5706 5705 5704 5703 5702 5700 5699 5698
5731 5729 5728 5726 5724 5723 5722 5719 5718 5716 5715 5713 5712 5712 5711 5712 5710 5709 5709 5711 5711 5713 5713 5712 5710 5708 5707 5705 5704 5702 5701 5700 5698 5696 5695 5694 5692 5691
5725 5725 5724 5723 5722 5720 5718 5714 5712 5709 5707 5705 5703 5703 5703 5702 5701 5702 5701 5702 5704 5705 5704 5704 5703 5701 5700 5699 5697 5696 5695 5694 5692 5690 5689 5687 5685 5684
5719 5718 5719 5717 5716 5715 5713 5711 5709 5704 5701 5698 5696 5695 5696 5695 5695 5695 5693 5692 5694 5698 5696 5696 5696 5694 5694 5693 5692 5691 5689 5687 5686 5684 5682 5681 5679 5678
5713 5711 5711 5711 5709 5707 5706 5704 5703 5702 5700 5696 5692 5691 5691 5691 5688 5687 5687 5686 5687 5690 5688 5687 5688 5687 5688 5688 5687 5685 5683 5681 5680 5678 5676 5674 5673 5671
5707 5705 5703 5702 5702 5699 5698 5696 5694 5694 5693 5691 5689 5688 5688 5687 5685 5684 5682 5681 5682 5682 5681 5678 5679 5680 5682 5681 5680 5678 5677 5675 5673 5671 5669 5667 5665 5663
5700 5699 5697 5696 5695 5693 5690 5687 5686 5685 5686 5685 5683 5682 5682 5681 5680 5676 5673 5671 5670 5672 5673 5670 5671 5671 5672 5672 5672 5671 5670 5668 5666 5664 5661 5659 5657 5654
5691 5691 5691 5689 5688 5686 5682 5679 5677 5677 5677 5676 5674 5673 5673 5672 5672 5669 5667 5663 5662 5662 5665 5663 5662 5661 5659 5662 5662 5662 5661 5659 5657 5655 5653 5651 5649 5646
5682 5682 5682 5681 5680 5678 5676 5673 5672 5670 5668 5666 5665 5663 5663 5663 5663 5662 5661 5659 5656 5655 5658 5656 5653 5651 5649 5649 5650 5651 5650 5649 5647 5645 5644 5642 5640 5637
5674 5674 5674 5673 5672 5670 5668 5667 5664 5662 5659 5656 5655 5654 5653 5653 5653 5653 5653 5652 5652 5651 5651 5649 5646 5643 5640 5637 5637 5639 5640 5640 5638 5636 5634 5633 5631 5629
5666 5666 5665 5664 5663 5660 5659 5658 5655 5652 5649 5647 5646 5645 5645 5645 5644 5643 5643 5643 5643 5643 5642 5641 5639 5636 5633 5630 5629 5628 5627 5628 5628 5626 5625 5623 5622 5621
5656 5656 5655 5654 5653 5651 5649 5647 5645 5643 5641 5639 5638 5637 5636 5635 5634 5634 5632 5632 5630 5631 5632 5632 5631 5629 5625 5624 5622 5620 5619 5617 5617 5617 5616 5615 5614 5612
5646 5645 5643 5642 5641 5639 5638 5637 5636 5634 5631 5630 5628 5627 5626 5626 5625 5625 5623 5622 5621 5620 5620 5621 5621 5620 5618 5616 5613 5612 5610 5609 5609 5608 5606 5605 5605 5604
5637 5635 5634 5632 5631 5630 5628 5627 5626 5625 5623 5620 5619 5617 5616 5616 5616 5616 5615 5614 5612 5612 5611 5611 5610 5609 5607 5607 5606 5603 5601 5600 5600 5599 5597 5596 5596 5596
5627 5626 5625 5624 5623 5621 5620 5619 5618 5616 5614 5612 5610 5609 5608 5608 5607 5607 5606 5605 5604 5603 5603 5602 5601 5600 5597 5596 5597 5597 5594 5593 5591 5590 5589 5588 5587 5588
5619 5618 5617 5616 5615 5613 5612 5611 5610 5608 5606 5604 5602 5601 5600 5599 5599 5597 5597 5596 5595 5594 5592 5592 5592 5591 5591 5589 5587 5587 5587 5585 5583 5581 5580 5579 5578 5579
5610 5610 5609 5608 5607 5606 5604 5603 5601 5599 5598 5596 5594 5593 5592 5591 5590 5590 5589 5588 5586 5585 5583 5583 5584 5585 5584 5581 5578 5577 5578 5578 5576 5574 5572 5569 5568 5567
5603 5602 5601 5600 5599 5598 5596 5595 5593 5592 5590 5588 5587 5585 5584 5583 5582 5581 5580 5579 5577 5576 5575 5575 5575 5574 5573 5571 5569 5567 5567 5567 5567 5566 5565 5563 5559 5558
5596 5595 5593 5592 5590 5589 5587 5586 5585 5583 5581 5580 5578 5577 5576 5574 5572 5571 5571 5570 5568 5567 5565 5564 5563 5562 5561 5560 5558 5557 5557 5556 5555 5554 5554 5554 5553 5552